Date String (YYYY-MM-DD hh:mm:ss) UTC,Instrument flags,Ambient pressure (hPa),Sample flow (lpm),Bypass flow (lpm),Sample temperature (°C),Ambient temperature (°C),ASC tube jacket temperature (°C),LED temperature (°C),Box temperature (°C),Sample RH (%),Span deviation,Mass concentration (μg/m³),Mass concentration (μg/m³),Mass concentration (μg/m³)
DateTimeUTC,F1_M11,P_M11,Q1_M11,Q2_M11,T1_M11,T2_M11,T3_M11,T4_M11,T5_M11,U1_M11,ZSPAN_M11,X0_M11,X2_M11,X1_M11
2021-11-27 08:00:00,,0825.9,5.00,0.00,28.7,27.6,00.0,37.8,30.3,06.1,0000.0,0001.71,0000.96,0000.60
2021-11-27 08:01:00,,0826.0,5.01,0.00,28.7,27.6,00.0,37.7,30.3,06.1,0000.0,0001.73,0000.95,0000.60
2021-11-27 08:02:00,,0826.0,5.00,0.00,28.6,27.6,00.0,37.7,30.3,06.1,0000.0,0001.83,0000.96,0000.60
2021-11-27 08:03:00,,0826.0,4.99,0.00,28.6,27.6,00.0,37.7,30.3,06.1,0000.0,0002.04,0000.99,0000.61
2021-11-27 08:04:00,,0826.0,5.01,0.00,28.6,27.6,00.0,37.7,30.2,06.1,0000.0,0001.97,0000.98,0000.61
2021-11-27 08:05:00,,0825.9,4.99,0.00,28.6,27.6,00.0,37.7,30.2,06.1,0000.0,0002.02,0001.02,0000.62
2021-11-27 08:06:00,,0825.9,5.01,0.00,28.6,27.5,00.0,37.7,30.2,06.1,0000.0,0001.92,0000.98,0000.62
2021-11-27 08:07:00,,0825.9,4.99,0.00,28.6,27.6,00.0,37.7,30.2,06.1,0000.0,0001.94,0001.00,0000.63
2021-11-27 08:08:00,,0826.0,4.99,0.00,28.6,27.6,00.0,37.7,30.2,06.1,0000.0,0002.01,0001.02,0000.64
2021-11-27 08:09:00,,0826.0,5.02,0.00,28.6,27.6,00.0,37.7,30.2,06.1,0000.0,0002.08,0001.03,0000.64
2021-11-27 08:10:00,,0826.0,4.99,0.00,28.6,27.6,00.0,37.7,30.2,06.1,0000.0,0002.23,0001.07,0000.64
2021-11-27 08:11:00,,0826.0,5.00,0.00,28.6,27.6,00.0,37.7,30.2,06.1,0000.0,0002.41,0001.10,0000.64
2021-11-27 08:12:00,,0826.0,5.00,0.00,28.6,27.6,00.0,37.7,30.2,06.1,0000.0,0002.48,0001.12,0000.64
2021-11-27 08:13:00,,0826.0,5.00,0.00,28.6,27.6,00.0,37.7,30.2,06.1,0000.0,0002.53,0001.12,0000.64
2021-11-27 08:14:00,,0826.0,5.01,0.00,28.6,27.5,00.0,37.7,30.2,06.1,0000.0,0002.29,0001.08,0000.63
2021-11-27 08:15:00,,0826.0,5.00,0.00,28.6,27.5,00.0,37.7,30.2,06.1,0000.0,0002.32,0001.10,0000.64
2021-11-27 08:16:00,,0826.0,4.98,0.00,28.6,27.5,00.0,37.7,30.2,06.1,0000.0,0002.38,0001.09,0000.64
2021-11-27 08:17:00,,0826.0,5.01,0.00,28.6,27.5,00.0,37.7,30.2,06.1,0000.0,0002.53,0001.14,0000.64
2021-11-27 08:18:00,,0826.0,5.00,0.00,28.6,27.5,00.0,37.7,30.2,06.2,0000.0,0002.63,0001.16,0000.64
2021-11-27 08:19:00,,0826.0,5.01,0.00,28.5,27.5,00.0,37.7,30.2,06.2,0000.0,0002.68,0001.18,0000.64
2021-11-27 08:20:00,,0826.0,4.99,0.00,28.5,27.5,00.0,37.6,30.1,06.2,0000.0,0002.76,0001.19,0000.64
2021-11-27 08:21:00,,0826.0,5.02,0.00,28.5,27.5,00.0,37.6,30.1,06.2,0000.0,0002.65,0001.12,0000.63
2021-11-27 08:22:00,,0826.0,5.01,0.00,28.5,27.5,00.0,37.6,30.1,06.3,0000.0,0002.57,0001.09,0000.64
2021-11-27 08:23:00,,0826.0,4.99,0.00,28.5,27.5,00.0,37.6,30.1,06.3,0000.0,0002.52,0001.09,0000.63
2021-11-27 08:24:00,,0826.0,5.01,0.00,28.5,27.4,00.0,37.6,30.1,06.3,0000.0,0002.35,0001.06,0000.63
2021-11-27 08:25:00,,0826.1,5.01,0.00,28.5,27.4,00.0,37.6,30.0,06.3,0000.0,0002.29,0001.03,0000.62
2021-11-27 08:26:00,,0826.2,5.00,0.00,28.4,27.4,00.0,37.6,30.0,06.4,0000.0,0002.15,0000.98,0000.61
2021-11-27 08:27:00,,0826.2,5.02,0.00,28.4,27.4,00.0,37.6,30.0,06.4,0000.0,0002.01,0000.95,0000.60
2021-11-27 08:28:00,,0826.1,4.99,0.00,28.4,27.4,00.0,37.6,30.0,06.4,0000.0,0001.97,0000.95,0000.60
2021-11-27 08:29:00,,0826.2,5.00,0.00,28.4,27.3,00.0,37.5,30.0,06.4,0000.0,0001.92,0000.94,0000.60
2021-11-27 08:30:00,,0826.2,5.01,0.00,28.4,27.3,00.0,37.5,30.0,06.4,0000.0,0001.83,0000.91,0000.60
2021-11-27 08:31:00,,0826.2,4.99,0.00,28.4,27.3,00.0,37.5,30.0,06.4,0000.0,0001.72,0000.88,0000.60
2021-11-27 08:32:00,,0826.1,4.99,0.00,28.4,27.3,00.0,37.5,30.0,06.4,0000.0,0001.81,0000.95,0000.61
2021-11-27 08:33:00,,0826.1,5.01,0.00,28.4,27.3,00.0,37.5,30.0,06.4,0000.0,0001.73,0000.98,0000.62
2021-11-27 08:34:00,,0826.1,4.99,0.00,28.4,27.3,00.0,37.5,30.1,06.4,0000.0,0001.85,0000.95,0000.61
2021-11-27 08:35:00,,0826.1,4.99,0.00,28.4,27.3,00.0,37.5,30.1,06.5,0000.0,0002.58,0000.97,0000.62
2021-11-27 08:36:00,,0826.2,5.02,0.00,28.4,27.4,00.0,37.5,30.0,06.7,0000.0,0002.69,0001.00,0000.62
2021-11-27 08:37:00,,0826.2,4.99,0.00,28.4,27.4,00.0,37.5,30.0,06.6,0000.0,0002.80,0001.04,0000.63
2021-11-27 08:38:00,,0826.2,5.02,0.00,28.4,27.4,00.0,37.5,30.0,06.6,0000.0,0002.82,0001.05,0000.64
2021-11-27 08:39:00,,0826.2,5.00,0.00,28.4,27.4,00.0,37.5,30.0,06.5,0000.0,0002.73,0001.01,0000.64
2021-11-27 08:40:00,,0826.2,4.99,0.00,28.4,27.3,00.0,37.5,30.0,06.5,0000.0,0002.72,0000.99,0000.63
2021-11-27 08:41:00,,0826.2,5.01,0.00,28.4,27.3,00.0,37.5,30.0,06.6,0000.0,0002.87,0001.02,0000.63
2021-11-27 08:42:00,,0826.2,5.01,0.00,28.4,27.3,00.0,37.5,30.0,06.6,0000.0,0002.88,0001.03,0000.63
2021-11-27 08:43:00,,0826.2,5.00,0.00,28.4,27.3,00.0,37.5,30.0,06.6,0000.0,0002.76,0000.99,0000.63
2021-11-27 08:44:00,,0826.1,4.98,0.00,28.4,27.3,00.0,37.5,30.0,06.7,0000.0,0002.78,0000.97,0000.62
2021-11-27 08:45:00,,0826.2,5.01,0.00,28.4,27.3,00.0,37.4,30.0,06.7,0000.0,0002.71,0000.95,0000.62
2021-11-27 08:46:00,,0826.0,4.99,0.00,28.3,27.3,00.0,37.4,30.0,06.9,0000.0,0001.88,0000.92,0000.62
2021-11-27 08:47:00,,0826.0,5.00,0.00,28.3,27.3,00.0,37.4,29.9,07.0,0000.0,0001.87,0000.89,0000.62
2021-11-27 08:48:00,,0826.0,5.01,0.00,28.3,27.2,00.0,37.4,29.9,07.1,0000.0,0001.76,0000.86,0000.61
2021-11-27 08:49:00,,0826.0,5.00,0.00,28.3,27.2,00.0,37.4,29.8,07.1,0000.0,0001.67,0000.83,0000.61
2021-11-27 08:50:00,,0826.0,5.00,0.00,28.3,27.2,00.0,37.4,29.9,07.1,0000.0,0001.68,0000.83,0000.61
2021-11-27 08:51:00,,0826.0,5.01,0.00,28.3,27.1,00.0,37.4,29.8,07.1,0000.0,0001.62,0000.82,0000.61
2021-11-27 08:52:00,,0826.0,5.01,0.00,28.2,27.1,00.0,37.4,29.8,07.1,0000.0,0001.43,0000.79,0000.61
2021-11-27 08:53:00,,0826.0,5.00,0.00,28.2,27.1,00.0,37.4,29.8,07.1,0000.0,0001.47,0000.79,0000.60
2021-11-27 08:54:00,,0826.0,4.99,0.00,28.2,27.1,00.0,37.4,29.8,07.1,0000.0,0001.43,0000.78,0000.60
2021-11-27 08:55:00,,0826.1,5.01,0.00,28.2,27.1,00.0,37.4,29.8,07.2,0000.0,0001.34,0000.78,0000.59
2021-11-27 08:56:00,,0826.2,5.00,0.00,28.2,27.1,00.0,37.4,29.8,07.2,0000.0,0001.44,0000.83,0000.59
2021-11-27 08:57:00,,0826.2,5.00,0.00,28.2,27.1,00.0,37.4,29.8,07.2,0000.0,0001.85,0000.87,0000.59
2021-11-27 08:58:00,,0826.2,4.99,0.00,28.2,27.0,00.0,37.3,29.8,07.2,0000.0,0001.83,0000.89,0000.59
2021-11-27 08:59:00,,0826.2,5.01,0.00,28.2,27.0,00.0,37.3,29.8,07.3,0000.0,0001.88,0000.91,0000.60
